sat.trackr.live / text

‹ back to catalog

STARLINK-2745

NORAD 48671 · 2021-044AK

PAYLOAD ACTIVE UNKNOWN

§ Identity

Operator
Country
US
Launch date
2021-05-26
Launch site
AFETR
Launch vehicle
Mass (kg)
RCS (m²)

Purposes: comms

External: N2YO · Heavens-Above · Gunter

§ Orbital elements

Epoch: 2026-09-19T13:36:48.881088Z

Period
94.01 min
Inclination
53.1606°
Eccentricity
0.0001451
Mean motion
15.31685991 rev/d
Perigee alt
469.8 km
Apogee alt
471.8 km
Semi-major
6,848.9 km
B*
1.7703e-4
RAAN
293.2700°
Arg perigee
95.2318°
Mean anomaly
264.8849°
Rev number
29,349

§ Raw data

STARLINK-27451 48671U 21044AK  26262.56723242  .00005130  00000+0  17703-3 0  99952 48671  53.1606 293.2700 0001451  95.2318 264.8849 15.31685991293497

JSON: /api/v1/satellites/48671 · /tle

For live sub-satellite position, see the globe view (requires WebGL).

§ Visibility from observer

Set your observer location to see the next 7 days of passes ≥ 10°. The values pass through the URL so the page stays shareable.

No JS? Fill the form by hand. The geolocation button needs JavaScript.